Retour au catalogue

USA 452

ActifMilitaireVLEO
NORAD 62351·PAYLOAD·🇺🇸 United States

Lancé Dec 17, 2024 depuis Vandenberg Space Force Base

Loading…

Prochains Passages (prochaines 24 heures)

TLE

PériméSource: Mike McCants

Époque: Aug 14, 2026, 20:55 UTC

1 62351U 24243M   26226.87195153 0.00000000  00000-0  00000-0 0    02
2 62351  70.0190 134.7328 0003000  82.4103 277.5896 14.96713406    00

Suivez USA 452 en temps réel avec AllMySat

Download on the App Store